User: anonymous   Login
Location: Unspecified
(0.0000°N, 0.0000°E)
Time: 15:17:22
(UTC+00:00)
Language:

MAST - Orbit

View from above orbital plane
View from above orbital plane
View from above satellite
View from above satellite

Ground track
Ground track

The orbit data is extracted from the following two-line orbital elements,

1 31126U 07012K   19078.29878893 +.00000088 +00000-0 +29128-4 0  9994
2 31126 098.1391 020.8985 0089945 347.7476 012.1534 14.56711684633013
Epoch (UTC): 19 March 2019 07:10:15
Eccentricity: 0.0089945
inclination: 98.1391°
perigee height: 640 km
apogee height: 767 km
right ascension of ascending node: 20.8985°
argument of perigee: 347.7476°
revolutions per day: 14.56711684
mean anomaly at epoch: 12.1534°
orbit number at epoch: 63301

The dashed part of the orbit path shows where the satellite is in the earth's shadow,  

DLR